"2009-06-09 00:00:00",959347,1.05,355.3,9.9,0.246,9.09,104.6882,11.27,12.3,77.17,0,110.4,13.37,12.07,317.3
"2009-06-09 00:00:30",959348,1.101,2.092,8.72,0.275,9.42,104.6961,11.29,12.32,77.19,0,110.4,13.37,12.09,324.1
"2009-06-09 00:01:00",959349,0.954,355.5,6.26,0.237,9.78,104.7009,11.31,12.33,77.16,0,110.4,13.37,12.10,317.5
"2009-06-09 00:01:30",959350,0.66,350.7,5.697,0.17,10.11,104.7023,11.31,12.33,77.12,0,110.4,13.37,12.10,312.7
"2009-06-09 00:02:00",959351,1.899,4.073,19.55,1.242,11.9,104.7023,11.31,12.38,77.12,0,110.4,13.34,12.10,326.1
"2009-06-09 00:02:30",959352,1.697,19.86,15.96,1.333,12.08,104.7023,11.31,12.48,77.19,0,110.4,13.34,12.10,341.9
"2009-06-09 00:03:00",959353,1.643,31.71,4.803,0.698,10.2,104.7023,11.31,12.37,77.1,0,110.4,13.34,12.10,353.7
"2009-06-09 00:03:30",959354,1.482,23.59,3.807,0.253,10.04,104.7099,11.33,12.36,77.1,0,110.4,13.38,12.12,345.6
"2009-06-09 00:04:00",959355,1.951,31.84,3.41,0.145,10.22,104.7302,11.38,12.37,77.05,0,110.4,13.38,12.17,353.8
"2009-06-09 00:04:30",959356,2.694,37.94,8.13,1.348,11.68,104.7358,11.4,12.4,76.98,0,110.4,13.34,12.19,359.9
"2009-06-09 00:05:00",959357,2.933,46.79,7.965,1.131,11.93,104.7361,11.4,12.58,77.1,0,110.4,13.34,12.19,8.8
"2009-06-09 00:05:30",959358,4.137,51.27,6.142,1.33,13.57,104.7361,11.4,12.53,76.98,0,110.4,13.34,12.19,13.3
"2009-06-09 00:06:00",959359,3.521,48.57,7.391,1.256,11.92,104.7432,11.42,12.52,76.88,0,110.4,13.34,12.21,10.6
"2009-06-09 00:06:30",959360,3.204,44.91,7.689,1.147,11.89,104.7649,11.47,12.63,76.95,0,110.4,13.34,12.26,6.9
"2009-06-09 00:07:00",959361,1.737,38.6,3.998,0.22,9.43,104.77,11.48,12.47,76.79,0,110.4,13.37,12.28,0.6
"2009-06-09 00:07:30",959362,1.444,27.73,10.28,0.383,9.41,104.77,11.48,12.48,76.71,0,110.4,13.37,12.28,349.7
"2009-06-09 00:08:00",959363,2.309,23.93,6.627,1.157,10.45,104.77,11.48,12.51,76.63,0,110.4,13.33,12.28,345.9
"2009-06-09 00:08:30",959364,3.092,42.82,10.25,1.558,11.9,104.7702,11.48,12.63,76.79,0,110.4,13.33,12.28,4.8
"2009-06-09 00:09:00",959365,2.372,40.47,2.526,0.18,9.94,104.784,11.52,12.52,76.65,0,110.4,13.37,12.31,2.5
"2009-06-09 00:09:30",959366,2.048,29.56,3.785,0.223,10.25,104.8029,11.57,12.55,76.62,0,110.4,13.36,12.36,351.6
"2009-06-09 00:10:00",959367,3.184,40.58,7.797,0.975,11.94,104.8038,11.57,12.69,76.72,0,110.4,13.33,12.36,2.6
"2009-06-09 00:10:30",959368,4.41,53.19,6.597,1.4,13.77,104.8038,11.57,12.72,76.77,0,110.4,13.33,12.36,15.2
"2009-06-09 00:11:00",959369,3.675,44.79,14.37,1.347,13.28,104.8038,11.57,12.68,76.87,0,110.4,13.33,12.36,6.8
"2009-06-09 00:11:30",959370,2.432,25.87,5.923,1.033,11.4,104.8007,11.56,12.61,76.61,0,110.4,13.33,12.35,347.9
"2009-06-09 00:12:00",959371,3.506,35.21,8.18,1.053,11.44,104.7967,11.55,12.54,76.51,0,110.4,13.33,12.34,357.2
"2009-06-09 00:12:30",959372,3.953,42.5,8.99,1.478,12.49,104.8018,11.57,12.78,76.82,0,110.4,13.32,12.36,4.5
"2009-06-09 00:13:00",959373,2.831,28.91,6.202,1.6,11.93,104.8038,11.57,12.57,76.59,0,110.4,13.32,12.36,350.9
"2009-06-09 00:13:30",959374,2.996,30.03,6.008,1.401,12.08,104.8038,11.57,12.67,76.59,0,110.4,13.32,12.36,352.0
"2009-06-09 00:14:00",959375,2.756,33.73,2.817,0.29,10.16,104.8035,11.57,12.55,76.42,0,110.4,13.36,12.36,355.7
"2009-06-09 00:14:30",959376,2.684,35.5,2.33,0.36,10.37,104.8038,11.57,12.54,76.38,0,110.4,13.32,12.36,357.5
"2009-06-09 00:15:00",959377,2.91,41.91,5.25,0.925,12,104.8038,11.57,12.72,76.48,0,110.4,13.33,12.36,3.9
"2009-06-09 00:15:30",959378,3.863,54.41,6.046,1.42,13.39,104.8038,11.57,12.73,76.41,0,110.4,13.33,12.36,16.4
"2009-06-09 00:16:00",959379,2.861,39.12,9.08,0.85,11.37,104.8038,11.57,12.69,76.32,0,110.4,13.33,12.36,1.1
"2009-06-09 00:16:30",959380,2.296,24.37,7.719,0.481,10.33,104.8038,11.57,12.55,76.18,0,110.4,13.36,12.36,346.4
"2009-06-09 00:17:00",959381,3.686,32.6,7.365,1.314,13.45,104.8027,11.57,12.63,76.26,0,110.4,13.32,12.36,354.6
"2009-06-09 00:17:30",959382,3.736,30.39,8.84,1.239,13.17,104.7998,11.56,12.74,76.34,0,110.4,13.33,12.35,352.4
"2009-06-09 00:18:00",959383,1.802,20.8,4.862,0.251,10.46,104.7967,11.55,12.63,76.23,0,110.4,13.36,12.34,342.8
"2009-06-09 00:18:30",959384,1.85,17.6,2.266,0.209,10.13,104.7953,11.55,12.54,76.12,0,110.4,13.36,12.34,339.6
"2009-06-09 00:19:00",959385,1.505,19.4,6.027,0.2,10.24,104.7846,11.52,12.52,76.1,0,110.4,13.36,12.31,341.4
"2009-06-09 00:19:30",959386,2.379,34.52,5.711,0.965,11.79,104.7728,11.49,12.6,76.15,0,110.4,13.33,12.28,356.5
"2009-06-09 00:20:00",959387,3.546,33.94,7.357,1.195,13.75,104.77,11.48,12.67,76.3,0,110.4,13.33,12.28,355.9
"2009-06-09 00:20:30",959388,3.534,32.5,8.75,1.342,13.77,104.77,11.48,12.66,76.2,0,110.4,13.33,12.28,354.5
"2009-06-09 00:21:00",959389,1.911,32.91,2.963,0.24,10.12,104.77,11.48,12.54,76.07,0,110.4,13.36,12.28,354.9
"2009-06-09 00:21:30",959390,2.163,30.36,6.102,0.2,9.91,104.77,11.48,12.53,76.09,0,110.4,13.36,12.28,352.4
"2009-06-09 00:22:00",959391,2.593,39.3,5.346,0.959,10.51,104.77,11.48,12.52,76.09,0,110.4,13.33,12.28,1.3
"2009-06-09 00:22:30",959392,3.541,29.66,12.23,1.619,13.46,104.7697,11.48,12.73,76.35,0,110.4,13.33,12.28,351.7
"2009-06-09 00:23:00",959393,3.535,24.25,11.25,1.258,12.64,104.7629,11.47,12.59,76.23,0,110.4,13.33,12.26,346.2
"2009-06-09 00:23:30",959394,1.971,11.27,7.015,0.261,10.37,104.7449,11.42,12.49,76.17,0,110.4,13.37,12.21,333.3
"2009-06-09 00:24:00",959395,1.491,21.21,5.857,0.27,10.3,104.7364,11.4,12.49,76.18,0,110.4,13.37,12.19,343.2
"2009-06-09 00:24:30",959396,1.427,27.81,3.596,0.168,10.44,104.7361,11.4,12.49,76.23,0,110.4,13.37,12.19,349.8
"2009-06-09 00:25:00",959397,3.342,30.8,7.399,1.423,13.9,104.7361,11.4,12.72,76.55,0,110.4,13.33,12.19,352.8
"2009-06-09 00:25:30",959398,2.919,27.9,7.103,1.292,12.71,104.7356,11.4,12.63,76.6,0,110.4,13.33,12.19,349.9
"2009-06-09 00:26:00",959399,1.918,29.82,3.506,0.212,10.18,104.7265,11.37,12.45,76.63,0,110.4,13.36,12.16,351.8
"2009-06-09 00:26:30",959400,1.745,23.17,5.407,0.181,10.05,104.7096,11.33,12.43,76.64,0,110.4,13.36,12.12,345.2
"2009-06-09 00:27:00",959401,1.849,30.6,7.22,0.358,10.69,104.7023,11.31,12.54,76.79,0,110.4,13.33,12.10,352.6
"2009-06-09 00:27:30",959402,2.439,32.29,6.333,1.095,11.9,104.7023,11.31,12.43,76.75,0,110.4,13.32,12.10,354.3
"2009-06-09 00:28:00",959403,2.655,29.36,4.128,0.229,10.36,104.7023,11.31,12.45,76.8,0,110.4,13.36,12.10,351.4
"2009-06-09 00:28:30",959404,3.545,32.96,5.999,1.515,12.75,104.7023,11.31,12.5,76.91,0,110.4,13.33,12.10,355.0
"2009-06-09 00:29:00",959405,1.964,24.6,2.735,0.184,10.66,104.6975,11.3,12.4,76.87,0,110.4,13.36,12.09,346.6
"2009-06-09 00:29:30",959406,2.577,34.27,7.206,1.167,11.29,104.6834,11.26,12.36,76.93,0,110.4,13.33,12.05,356.3
"2009-06-09 00:30:00",959407,3.405,36.92,9.65,1.294,13.33,104.6685,11.22,12.57,77.22,0,110.4,13.33,12.02,358.9
"2009-06-09 00:30:30",959408,2.797,32.49,6.49,1.276,12.16,104.6685,11.22,12.47,77.15,0,110.4,13.33,12.02,354.5
"2009-06-09 00:31:00",959409,2.249,34.26,3.339,0.316,10.05,104.6685,11.22,12.33,77.11,0,110.4,13.37,12.02,356.3
"2009-06-09 00:31:30",959410,2.502,31.78,6.559,0.842,10.06,104.6674,11.22,12.34,77.17,0,110.4,13.34,12.01,353.8
"2009-06-09 00:32:00",959411,3.169,26.44,6.532,1.294,12.32,104.6578,11.2,12.44,77.29,0,110.3,13.34,11.99,348.4
"2009-06-09 00:32:30",959412,2.184,25.46,3.139,0.278,10.17,104.6444,11.16,12.28,77.24,0,110.4,13.38,11.95,347.5
"2009-06-09 00:33:00",959413,2.462,26.62,2.001,0.299,10.31,104.6379,11.15,12.27,77.31,0,110.3,13.38,11.94,348.6
"2009-06-09 00:33:30",959414,3.341,29.3,5.947,1.146,11.82,104.6411,11.15,12.25,77.33,0,110.3,13.34,11.94,351.3
"2009-06-09 00:34:00",959415,3.156,27.14,8.51,0.804,11.91,104.6426,11.16,12.42,77.46,0,110.3,13.34,11.95,349.1
"2009-06-09 00:34:30",959416,4.859,39.79,6.098,1.3,14.83,104.6441,11.16,12.45,77.51,0,110.3,13.34,11.95,1.8
"2009-06-09 00:35:00",959417,4.534,36.66,6.298,1.467,12.99,104.6444,11.16,12.44,77.55,0,110.3,13.34,11.95,358.7
"2009-06-09 00:35:30",959418,2.592,27.77,1.609,0.22,10.36,104.6328,11.13,12.23,77.45,0,110.3,13.38,11.92,349.8
"2009-06-09 00:36:00",959419,3.268,32.62,6.623,1.227,11.47,104.6185,11.1,12.37,77.59,0,110.3,13.34,11.89,354.6
"2009-06-09 00:36:30",959420,3.334,35.63,4.998,1.037,10.84,104.6126,11.08,12.3,77.6,0,110.3,13.34,11.87,357.6
"2009-06-09 00:37:00",959421,3.261,38.09,3.181,0.69,10.29,104.6126,11.08,12.23,77.6,0,110.3,13.34,11.87,0.1
"2009-06-09 00:37:30",959422,3.201,36.39,2.585,0.401,10.12,104.6123,11.08,12.19,77.68,0,110.3,13.38,11.87,358.4
"2009-06-09 00:38:00",959423,2.969,34.92,1.942,0.28,10.56,104.6144,11.09,12.18,77.81,0,110.3,13.38,11.88,356.9
"2009-06-09 00:38:30",959424,3.757,37.19,6.855,1.296,12.46,104.6167,11.09,12.32,78.06,0,110.3,13.34,11.88,359.2
"2009-06-09 00:39:00",959425,5.409,44.09,6.345,1.081,14.4,104.6188,11.1,12.43,78.22,0,110.3,13.34,11.89,6.1
"2009-06-09 00:39:30",959426,5.598,46.97,6.134,1.145,14.71,104.6172,11.09,12.36,78.21,0,110.3,13.34,11.88,9.0
"2009-06-09 00:40:00",959427,3.629,35.72,7.815,1.384,11.53,104.6102,11.07,12.13,77.99,0,110.3,13.34,11.87,357.7
"2009-06-09 00:40:30",959428,3.325,35.45,7.246,1.292,11.5,104.6111,11.08,12.28,78.13,0,110.3,13.34,11.87,357.5
"2009-06-09 00:41:00",959429,3.516,34.03,5.028,1.077,10.53,104.5991,11.05,12.13,77.96,0,110.3,13.34,11.84,356.0
"2009-06-09 00:41:30",959430,3.117,32.22,1.612,0.236,9.98,104.5941,11.03,12.1,78.01,0,110.3,13.38,11.82,354.2
"2009-06-09 00:42:00",959431,3.251,32.97,1.298,0.245,10.25,104.595,11.04,12.1,78.05,0,110.3,13.38,11.83,355.0
"2009-06-09 00:42:30",959432,3.45,34.5,1.967,0.262,10.57,104.5988,11.05,12.08,78.15,0,110.3,13.38,11.84,356.5
"2009-06-09 00:43:00",959433,3.316,32.96,3.766,0.839,11.05,104.6009,11.05,12.08,78.22,0,110.3,13.34,11.84,355.0
"2009-06-09 00:43:30",959434,4.993,41.08,6.744,1.257,14.83,104.5994,11.05,12.3,78.46,0,110.3,13.34,11.84,3.1
"2009-06-09 00:44:00",959435,6.273,46.88,4.028,0.797,15.76,104.5994,11.05,12.33,78.55,0,110.3,13.34,11.84,8.9
"2009-06-09 00:44:30",959436,4.628,39.02,6.598,1.3,12.78,104.6009,11.05,12.3,78.64,0,110.3,13.34,11.84,1.0
"2009-06-09 00:45:00",959437,5.247,42.34,6.694,1.235,12.37,104.6001,11.05,12.15,78.54,0,110.3,13.34,11.84,4.3
"2009-06-09 00:45:30",959438,3.854,38.3,2.113,0.307,10.24,104.5956,11.04,12.16,78.61,0,110.3,13.37,11.83,0.3
"2009-06-09 00:46:00",959439,3.666,37.09,1.723,0.201,10.07,104.5939,11.03,12.05,78.53,0,110.3,13.37,11.82,359.1
"2009-06-09 00:46:30",959440,4.005,40.55,2.065,0.153,10.42,104.5914,11.03,12.07,78.53,0,110.3,13.37,11.82,2.5
"2009-06-09 00:47:00",959441,3.972,36.61,1.028,0.11,10.94,104.5846,11.01,12.04,78.54,0,110.3,13.37,11.80,358.6
"2009-06-09 00:47:30",959442,5.434,45.23,6.596,1.207,14.28,104.5759,10.99,12.19,78.68,0,110.3,13.34,11.78,7.2
"2009-06-09 00:48:00",959443,5.219,46.31,6.694,1.217,14.49,104.5702,10.97,12.28,78.77,0,110.3,13.34,11.76,8.3
"2009-06-09 00:48:30",959444,5.881,49.56,5.302,0.931,15.08,104.5685,10.97,12.25,78.77,0,110.3,13.34,11.76,11.6
"2009-06-09 00:49:00",959445,5.374,45.21,8.22,1.538,14.29,104.5685,10.97,12.21,78.78,0,110.3,13.34,11.76,7.2
"2009-06-09 00:49:30",959446,3.694,34.34,2.959,0.781,10.26,104.5685,10.97,12.02,78.66,0,110.3,13.34,11.76,356.3
"2009-06-09 00:50:00",959447,3.177,30.69,1.791,0.351,10.09,104.5685,10.97,12.01,78.76,0,110.3,13.38,11.76,352.7
"2009-06-09 00:50:30",959448,3.097,31.09,2.48,0.307,10.31,104.5685,10.97,12,78.83,0,110.3,13.38,11.76,353.1
"2009-06-09 00:51:00",959449,2.768,29.04,3.076,0.29,10.68,104.5685,10.97,12.01,78.9,0,110.3,13.38,11.76,351.0
"2009-06-09 00:51:30",959450,3.112,23.44,1.945,0.238,11.12,104.5685,10.97,12.08,79.02,0,110.3,13.38,11.76,345.4
"2009-06-09 00:52:00",959451,4.006,30.62,5.817,1.433,13.34,104.5685,10.97,12.07,79.05,0,110.3,13.35,11.76,352.6
"2009-06-09 00:52:30",959452,2.841,28.98,2.785,0.312,11.94,104.5685,10.97,12.17,79.18,0,110.3,13.38,11.76,351.0
"2009-06-09 00:53:00",959453,4.807,38.28,5.976,1.102,14.91,104.5685,10.97,12.26,79.26,0,110.3,13.35,11.76,0.3
"2009-06-09 00:53:30",959454,4.482,36.28,5.607,1.137,13.42,104.5685,10.97,12.12,79.13,0,110.3,13.34,11.76,358.3
"2009-06-09 00:54:00",959455,4.632,35.11,6.039,1.125,11.53,104.5685,10.97,12.14,79.13,0,110.3,13.34,11.76,357.1
"2009-06-09 00:54:30",959456,3.9,30.59,0.766,0.244,10.01,104.5685,10.97,11.98,78.96,0,110.3,13.38,11.76,352.6
"2009-06-09 00:55:00",959457,3.25,29.87,0.833,0.217,10.26,104.5685,10.97,12,78.92,0,110.3,13.38,11.76,351.9
"2009-06-09 00:55:30",959458,3.027,30.37,0.892,0.165,10.66,104.5685,10.97,11.99,78.9,0,110.3,13.38,11.76,352.4
"2009-06-09 00:56:00",959459,3.517,34.41,5.778,1.047,12.05,104.5685,10.97,12.13,79.08,0,110.3,13.35,11.76,356.4
"2009-06-09 00:56:30",959460,3.824,33.55,6.768,1.184,12.27,104.5685,10.97,12.04,79.04,0,110.3,13.35,11.76,355.5
"2009-06-09 00:57:00",959461,4.605,38.93,6.666,1.315,13.57,104.5685,10.97,12.07,79.05,0,110.3,13.35,11.76,0.9
"2009-06-09 00:57:30",959462,5.47,41.42,6.368,1.138,15.11,104.5685,10.97,12.24,79.23,0,110.3,13.35,11.76,3.4
"2009-06-09 00:58:00",959463,4.863,39.53,7.137,1.315,14.16,104.5674,10.97,12.15,79.12,0,110.3,13.35,11.76,1.5
"2009-06-09 00:58:30",959464,2.678,30.29,1.929,0.182,10.25,104.5584,10.94,12.01,78.93,0,110.3,13.38,11.73,352.3
"2009-06-09 00:59:00",959465,2.448,27.13,1.586,0.174,10.02,104.5555,10.94,11.96,78.87,0,110.3,13.38,11.73,349.1
"2009-06-09 00:59:30",959466,2.459,29.94,1.298,0.169,10.15,104.5575,10.94,11.96,78.9,0,110.3,13.38,11.73,351.9
"2009-06-09 01:00:00",959467,2.627,30.77,1.596,0.278,10.56,104.5522,10.93,11.95,78.89,0,110.3,13.38,11.72,352.8
"2009-06-09 01:00:30",959468,3.482,36.49,6.618,1.278,13,104.5437,10.9,12.07,79.08,0,110.3,13.34,11.69,358.5
"2009-06-09 01:01:00",959469,2.432,29.71,1.26,0.165,11.14,104.5378,10.89,12.02,79.04,0,110.3,13.38,11.68,351.7
"2009-06-09 01:01:30",959470,3.288,31.8,6.093,1.311,12.52,104.5352,10.88,11.95,78.96,0,110.3,13.34,11.67,353.8
"2009-06-09 01:02:00",959471,3.212,33.37,6.345,1.226,13.1,104.5347,10.88,12.2,79.21,0,110.3,13.34,11.67,355.4
"2009-06-09 01:02:30",959472,3.816,35.95,7.053,1.328,13.35,104.5347,10.88,12.04,79.03,0,110.3,13.34,11.67,358.0
"2009-06-09 01:03:00",959473,2.974,31.29,5.351,1.136,12.06,104.5347,10.88,12.13,79.24,0,110.3,13.34,11.67,353.3
"2009-06-09 01:03:30",959474,4.054,34.29,7.839,1.259,12.25,104.5347,10.88,12,79.06,0,110.3,13.34,11.67,356.3
"2009-06-09 01:04:00",959475,2.762,28.22,1.523,0.134,10.2,104.5347,10.88,11.94,79.02,0,110.3,13.38,11.67,350.2
"2009-06-09 01:04:30",959476,2.691,28.56,0.984,0.204,10.35,104.5347,10.88,11.93,79.04,0,110.3,13.38,11.67,350.6
"2009-06-09 01:05:00",959477,3.703,33.25,5.978,1.16,12.87,104.5347,10.88,12.07,79.16,0,110.3,13.35,11.67,355.2
"2009-06-09 01:05:30",959478,3.498,31.86,5.751,0.928,12.07,104.5347,10.88,12.08,79.11,0,110.3,13.35,11.67,353.9
"2009-06-09 01:06:00",959479,3.202,29.72,3.913,0.8,11.69,104.5347,10.88,12.06,79.09,0,110.3,13.35,11.67,351.7
"2009-06-09 01:06:30",959480,4.595,39.05,5.966,1.327,14.81,104.5347,10.88,12.13,79.21,0,110.3,13.35,11.67,1.0
"2009-06-09 01:07:00",959481,4.239,35.46,4.876,1.464,13.56,104.5341,10.88,12.11,79.22,0,110.3,13.35,11.67,357.5
"2009-06-09 01:07:30",959482,2.833,20.82,1.706,0.138,10.53,104.5313,10.87,11.91,79.06,0,110.3,13.39,11.66,342.8
"2009-06-09 01:08:00",959483,4.351,28.2,8.03,1.262,12.88,104.5288,10.87,12.09,79.28,0,110.3,13.35,11.66,350.2
"2009-06-09 01:08:30",959484,3.058,20.88,3.003,0.219,10.48,104.5248,10.86,11.89,79.19,0,110.3,13.39,11.65,342.9
"2009-06-09 01:09:00",959485,2.858,23.2,3.343,0.255,10.55,104.5237,10.85,11.91,79.3,0,110.3,13.38,11.64,345.2
"2009-06-09 01:09:30",959486,3.774,25.31,6.816,1.199,12.74,104.5237,10.85,12.03,79.47,0,110.3,13.35,11.64,347.3
"2009-06-09 01:10:00",959487,2.65,21.53,2.433,0.131,10.86,104.5212,10.85,11.92,79.37,0,110.3,13.39,11.64,343.5
"2009-06-09 01:10:30",959488,3.145,29.48,7.32,1.067,11.95,104.5187,10.84,12.06,79.55,0,110.3,13.35,11.63,351.5
"2009-06-09 01:11:00",959489,4.688,40.2,6.255,1.041,14.48,104.5113,10.82,12.13,79.67,0,110.3,13.35,11.61,2.2
"2009-06-09 01:11:30",959490,2.858,32.77,2.842,0.641,11,104.51,10.82,11.92,79.51,0,110.3,13.35,11.61,354.8
"2009-06-09 01:12:00",959491,2.636,29.15,1.947,0.202,10.36,104.5053,10.81,11.9,79.53,0,110.3,13.39,11.60,351.1
"2009-06-09 01:12:30",959492,2.353,25.51,4.144,0.66,10.54,104.5082,10.81,11.9,79.53,0,110.3,13.35,11.60,347.5
"2009-06-09 01:13:00",959493,2.626,18.44,7.019,1.248,12.58,104.5088,10.82,12.05,79.71,0,110.3,13.35,11.61,340.4
"2009-06-09 01:13:30",959494,3.325,22.81,7.205,1.335,13.18,104.5085,10.81,11.92,79.57,0,110.3,13.35,11.60,344.8
"2009-06-09 01:14:00",959495,2.085,15.97,8.64,1.025,11.71,104.5109,10.82,12.03,79.7,0,110.3,13.35,11.61,338.0
"2009-06-09 01:14:30",959496,2.515,22.14,6.164,1.169,11.6,104.5135,10.83,11.88,79.56,0,110.3,13.35,11.62,344.1
"2009-06-09 01:15:00",959497,1.724,16.72,4.538,0.225,10.58,104.512,10.82,11.88,79.58,0,110.3,13.39,11.61,338.7
"2009-06-09 01:15:30",959498,1.941,18.89,5.009,0.915,11.76,104.515,10.83,12.02,79.75,0,110.3,13.35,11.62,340.9
"2009-06-09 01:16:00",959499,2.912,21.41,7.802,1.203,14.66,104.5188,10.84,12.11,79.84,0,110.3,13.35,11.63,343.4
"2009-06-09 01:16:30",959500,1.694,3.267,5.181,0.843,11.12,104.5168,10.84,11.87,79.59,0,110.3,13.35,11.63,325.3
"2009-06-09 01:17:00",959501,1.546,355.2,4.553,0.266,10.4,104.5188,10.84,11.89,79.57,0,110.2,13.38,11.63,317.2
"2009-06-09 01:17:30",959502,1.658,351.7,3.175,0.213,10.31,104.5244,10.86,11.88,79.55,0,110.3,13.38,11.65,313.7
"2009-06-09 01:18:00",959503,1.781,352.4,2.463,0.206,10.48,104.5244,10.86,11.88,79.54,0,110.3,13.38,11.65,314.4
"2009-06-09 01:18:30",959504,1.646,352.8,2.423,0.131,10.82,104.528,10.86,11.9,79.56,0,110.3,13.39,11.65,314.8
"2009-06-09 01:19:00",959505,3.266,1.233,7.464,1.318,14.23,104.53,10.87,12.11,79.79,0,110.2,13.35,11.66,323.2
"2009-06-09 01:19:30",959506,3.295,357.4,6.889,1.43,13.82,104.5333,10.88,12.05,79.71,0,110.3,13.35,11.67,319.4
"2009-06-09 01:20:00",959507,1.653,352.7,2.716,0.192,10.8,104.5297,10.87,11.91,79.56,0,110.2,13.39,11.66,314.7
"2009-06-09 01:20:30",959508,1.851,351.3,1.808,0.152,10.54,104.533,10.88,11.88,79.48,0,110.2,13.39,11.67,313.3
"2009-06-09 01:21:00",959509,3.107,353.9,6.053,1.32,12.33,104.535,10.88,12.09,79.64,0,110.2,13.35,11.67,315.9
"2009-06-09 01:21:30",959510,3.984,356.9,6.744,1.264,14.26,104.535,10.88,12.14,79.64,0,110.2,13.35,11.67,318.9
"2009-06-09 01:22:00",959511,3.014,352.8,5.299,1.266,11.8,104.5356,10.88,11.87,79.33,0,110.2,13.35,11.67,314.8
"2009-06-09 01:22:30",959512,2.324,348.5,1.342,0.126,10.34,104.5357,10.88,11.87,79.31,0,110.2,13.39,11.67,310.5
"2009-06-09 01:23:00",959513,2.315,347.7,1.288,0.049,10.27,104.5337,10.88,11.88,79.27,0,110.2,13.39,11.67,309.7
"2009-06-09 01:23:30",959514,2.172,350.2,1.591,0.141,10.58,104.5314,10.87,11.93,79.28,0,110.2,13.39,11.66,312.2
"2009-06-09 01:24:00",959515,2.622,359.5,5.942,1.339,12.58,104.5294,10.87,11.95,79.21,0,110.2,13.36,11.66,321.5
"2009-06-09 01:24:30",959516,1.55,356.5,2.704,0.178,10.81,104.528,10.86,11.91,79.12,0,110.2,13.4,11.65,318.5
"2009-06-09 01:25:00",959517,1.721,0.405,6.863,0.782,11.61,104.5244,10.86,12.02,79.2,0,110.2,13.36,11.65,322.4
"2009-06-09 01:25:30",959518,2.526,3.821,6.875,1.354,12.55,104.519,10.84,11.87,79.03,0,110.2,13.36,11.63,325.8
"2009-06-09 01:26:00",959519,1.569,5.306,4.079,0.488,11.32,104.5117,10.82,11.98,79.09,0,110.2,13.36,11.61,327.3
"2009-06-09 01:26:30",959520,2.475,8.75,8.36,1.342,12.18,104.5055,10.81,11.88,78.98,0,110.2,13.36,11.60,330.8
"2009-06-09 01:27:00",959521,2.37,12.68,5.054,1.095,11.74,104.5032,10.8,11.87,78.97,0,110.2,13.36,11.59,334.7
"2009-06-09 01:27:30",959522,3.249,18.43,6.72,1.327,13.11,104.5024,10.8,11.98,79.08,0,110.2,13.36,11.59,340.4
"2009-06-09 01:28:00",959523,1.942,13.26,2.413,0.124,10.5,104.5024,10.8,11.85,79,0,110.2,13.4,11.59,335.3
"2009-06-09 01:28:30",959524,1.938,16.3,4.696,0.628,10.97,104.5027,10.8,11.95,79.18,0,110.2,13.36,11.59,338.3
"2009-06-09 01:29:00",959525,2.678,22.16,5.807,1.199,11.99,104.5024,10.8,11.89,79.16,0,110.2,13.36,11.59,344.2
"2009-06-09 01:29:30",959526,2.776,28.17,7.081,1.131,12.38,104.5024,10.8,11.97,79.25,0,110.2,13.36,11.59,350.2
"2009-06-09 01:30:00",959527,1.948,22.78,2.161,0.207,10.51,104.5024,10.8,11.84,79.2,0,110.2,13.4,11.59,344.8
"2009-06-09 01:30:30",959528,1.798,22.64,1.756,0.14,10.81,104.5024,10.8,11.85,79.27,0,110.2,13.4,11.59,344.6
"2009-06-09 01:31:00",959529,3.039,31.81,7.724,1.361,13.12,104.5024,10.8,12.02,79.51,0,110.2,13.36,11.59,353.8
"2009-06-09 01:31:30",959530,3.382,34.21,7.341,1.369,14.19,104.5024,10.8,12.1,79.7,0,110.2,13.36,11.59,356.2
"2009-06-09 01:32:00",959531,2.279,26.5,7.009,0.777,11.76,104.5024,10.8,11.98,79.67,0,110.2,13.36,11.59,348.5
"2009-06-09 01:32:30",959532,3.203,28.66,7.846,1.307,13.04,104.5024,10.8,11.95,79.67,0,110.2,13.36,11.59,350.7
"2009-06-09 01:33:00",959533,2.253,27.44,6.69,0.828,11.76,104.5024,10.8,12,79.81,0,110.2,13.36,11.59,349.4
"2009-06-09 01:33:30",959534,1.769,27.94,1.735,0.193,10.55,104.5024,10.8,11.87,79.69,0,110.2,13.39,11.59,349.9
"2009-06-09 01:34:00",959535,2.733,30.24,7.86,1.293,12.51,104.5024,10.8,12,79.9,0,110.2,13.35,11.59,352.2
"2009-06-09 01:34:30",959536,1.905,22.85,2.829,0.199,10.55,104.5024,10.8,11.86,79.8,0,110.2,13.39,11.59,344.9
"2009-06-09 01:35:00",959537,2.105,29.05,1.684,0.221,10.46,104.5024,10.8,11.86,79.78,0,110.2,13.39,11.59,351.0
"2009-06-09 01:35:30",959538,2.075,28.29,4.218,0.674,11.25,104.5024,10.8,11.94,79.82,0,110.2,13.36,11.59,350.3
"2009-06-09 01:36:00",959539,2.816,33.23,7.241,1.501,12.5,104.5024,10.8,11.91,79.77,0,110.2,13.36,11.59,355.2
"2009-06-09 01:36:30",959540,2.649,29.95,9.75,1.107,12.99,104.5024,10.8,11.98,79.77,0,110.2,13.36,11.59,352.0
"2009-06-09 01:37:00",959541,1.994,31.15,5.596,0.725,11.92,104.5024,10.8,12.01,79.79,0,110.2,13.36,11.59,353.1
"2009-06-09 01:37:30",959542,3.718,41.69,7.231,1.314,14.24,104.5024,10.8,11.92,79.69,0,110.2,13.36,11.59,3.7
"2009-06-09 01:38:00",959543,3.224,41.49,8.27,1.47,13.35,104.5024,10.8,12,79.81,0,110.2,13.36,11.59,3.5
"2009-06-09 01:38:30",959544,3.23,41.12,5.836,1.181,11.61,104.5024,10.8,11.89,79.77,0,110.2,13.36,11.59,3.1
"2009-06-09 01:39:00",959545,3.51,45.35,4.971,1.075,11.48,104.5024,10.8,11.92,79.97,0,110.2,13.36,11.59,7.3
"2009-06-09 01:39:30",959546,3.909,47.21,6.572,1.261,12.52,104.5024,10.8,11.91,80.1,0,110.2,13.37,11.59,9.2
"2009-06-09 01:40:00",959547,2.895,43.46,0.61,0.047,10.61,104.5024,10.8,11.87,80.1,0,110.2,13.4,11.59,5.5
"2009-06-09 01:40:30",959548,4.006,47.36,6.609,1.271,12.91,104.5021,10.8,11.95,80.3,0,110.2,13.37,11.59,9.4
"2009-06-09 01:41:00",959549,4.088,47.31,6.439,1.246,13.18,104.5018,10.8,11.98,80.4,0,110.2,13.37,11.59,9.3
"2009-06-09 01:41:30",959550,4.757,47.65,6.924,1.306,13.39,104.4976,10.79,11.88,80.3,0,110.2,13.37,11.58,9.7
"2009-06-09 01:42:00",959551,4.719,50.29,7.416,1.369,14.08,104.4936,10.78,12.04,80.5,0,110.2,13.37,11.57,12.3
"2009-06-09 01:42:30",959552,4.976,50.08,7.148,1.334,13.79,104.4936,10.78,11.96,80.5,0,110.2,13.37,11.57,12.1
"2009-06-09 01:43:00",959553,4.271,45.01,5.519,1.122,12.46,104.49,10.77,11.94,80.6,0,110.2,13.37,11.56,7.0
"2009-06-09 01:43:30",959554,4.1,41.03,5.625,1.02,11.72,104.4804,10.74,11.9,80.6,0,110.2,13.37,11.53,3.0
"2009-06-09 01:44:00",959555,3.391,36.49,3.875,0.766,11.08,104.4699,10.72,11.82,80.6,0,110.2,13.4,11.51,358.5
"2009-06-09 01:44:30",959556,3.35,36.95,4.161,0.665,11.51,104.4688,10.71,11.92,80.7,0,110.2,13.37,11.50,359.0
"2009-06-09 01:45:00",959557,3.623,37.62,7.172,1.37,12.53,104.4685,10.71,11.83,80.6,0,110.2,13.37,11.50,359.6
"2009-06-09 01:45:30",959558,2.383,31.27,1.563,0.142,11.12,104.4685,10.71,11.81,80.5,0,110.2,13.4,11.50,353.3
"2009-06-09 01:46:00",959559,2.93,33.8,5.607,1.151,12.86,104.4685,10.71,11.89,80.6,0,110.2,13.37,11.50,355.8
"2009-06-09 01:46:30",959560,3.953,37.43,6.339,1.25,14.78,104.4685,10.71,12.01,80.6,0,110.2,13.37,11.50,359.4
"2009-06-09 01:47:00",959561,2.801,31.71,6.165,1.174,12.56,104.4685,10.71,11.82,80.4,0,110.2,13.37,11.50,353.7
"2009-06-09 01:47:30",959562,2.945,31.92,6.209,1.25,12.04,104.4685,10.71,11.75,80.4,0,110.2,13.37,11.50,353.9
"2009-06-09 01:48:00",959563,3.282,34.42,6.66,1.316,12.63,104.4674,10.71,11.89,80.5,0,110.2,13.37,11.50,356.4